Weather History for Fryeburg, ME

Change the Weather History Date:

Sunday, October 9, 2011

  Actual Average Record
Temperature  
Mean Temperature 66 °F -  
Max Temperature 84 °F 60 °F 84 °F (2011)
Min Temperature 51 °F 34 °F 23 °F (2002)
Cooling Degree Days 2    
Growing Degree Days 16 (Base 50)    
Moisture  
Dew Point 45 °F    
Average Humidity 46    
Maximum Humidity 86    
Minimum Humidity 22    
Precipitation  
Precipitation 0.00 in - - ()
Sea Level Pressure  
Sea Level Pressure 30.24 in    
Wind  
Wind Speed 5 mph (West)    
Max Wind Speed 10 mph    
Max Gust Speed 17 mph    
Visibility 10 miles    
Events      
Averages and records for this station are not official NWS values.
T = Trace of Precipitation, MM = Missing Value Source: NWS Daily Summary

Daily Weather History Graph

Daily Weather History Graph

Search for Another Location

Airport:

Trip Planner

Search our weather history database for the weather conditions in past years. The results will help you decide how hot, cold, wet, or windy it might be!

Date:

Astronomy

Oct. 09, 2011 Rise Set
Actual Time 6:50 AM EDT 6:10 PM EDT
Civil Twilight 6:21 AM EDT 6:39 PM EDT
Nautical Twilight 5:48 AM EDT 7:13 PM EDT
Astronomical Twilight 5:14 AM EDT 7:46 PM EDT
Moon 4:48 PM EDT (10/9) 4:28 AM EDT (10/9)
Length of Visible Light 12h 17m
Length of Day
11h 20m
Waxing Gibbous, 95% of the Moon is Illuminated
Oct 9
Waxing Gibbous
Oct 11
Full
Oct 19
Last Quarter
Oct 26
New
Nov 2
First Quarter

Hourly Weather History & Observations

Time (EDT) Temp. Dew Point Humidity Pressure Visibility Wind Dir Wind Speed Gust Speed Precip Events Conditions
12:54 AM 69.1 °F 43.0 °F 39% 30.27 in 10.0 mi Variable 4.6 mph - N/A   Clear
1:54 AM 68.0 °F 43.0 °F 40% 30.27 in 10.0 mi WSW 6.9 mph - N/A   Clear
2:54 AM 69.1 °F 41.0 °F 36% 30.27 in 10.0 mi WSW 6.9 mph - N/A   Clear
3:54 AM 68.0 °F 41.0 °F 37% 30.27 in 10.0 mi WSW 5.8 mph - N/A   Clear
4:54 AM 55.9 °F 46.9 °F 72% 30.28 in 10.0 mi NE 4.6 mph - N/A   Clear
5:54 AM 51.1 °F 46.9 °F 86% 30.29 in 10.0 mi Calm Calm - N/A   Clear
6:54 AM 51.1 °F 46.9 °F 86% 30.29 in 10.0 mi Calm Calm - N/A   Clear
9:54 AM 71.1 °F 52.0 °F 51% 30.29 in 10.0 mi Variable 4.6 mph - N/A   Clear
10:54 AM 80.1 °F 42.1 °F 26% 30.28 in 10.0 mi West 9.2 mph - N/A   Clear
12:54 PM 82.0 °F 42.1 °F 24% 30.25 in 10.0 mi WNW 9.2 mph 17.3 mph N/A   Clear
1:54 PM 82.9 °F 41.0 °F 23% 30.23 in 10.0 mi West 10.4 mph 16.1 mph N/A   Clear
2:54 PM 82.9 °F 39.9 °F 22% 30.22 in 10.0 mi Variable 6.9 mph 17.3 mph N/A   Clear
4:54 PM 81.0 °F 41.0 °F 24% 30.20 in 10.0 mi NW 8.1 mph - N/A   Clear
5:54 PM 75.9 °F 43.0 °F 31% 30.19 in 10.0 mi Variable 4.6 mph - N/A   Clear
6:54 PM 72.0 °F 45.0 °F 38% 30.21 in 10.0 mi Calm Calm - N/A   Clear
7:54 PM 68.0 °F 46.9 °F 47% 30.21 in 10.0 mi West 5.8 mph - N/A   Clear
8:54 PM 60.1 °F 48.0 °F 64% 30.20 in 10.0 mi Calm Calm - N/A   Clear
9:54 PM 64.0 °F 48.0 °F 56% 30.20 in 10.0 mi West 4.6 mph - N/A   Clear
10:54 PM 63.0 °F 48.0 °F 58% 30.19 in 10.0 mi WSW 4.6 mph - N/A   Clear
11:54 PM 66.9 °F 48.0 °F 51% 30.17 in 10.0 mi West 6.9 mph - N/A   Clear